Regional Weather Roundup
Issued by NWS

Home | Current Version | Previous Version | Text Only | Print | Product List | Glossary On
Versions: 1 2 3 4 5 6 7 8 9 10 11 12 13 14 15 16 17 18 19 20 21 22 23 24 25 26 27 28 29 30 31 32 33 34 35 36 37 38 39 40 41 42 43 44 45 46 47 48 49 50
000
ASUS43 KMPX 260010
RWRMN
WEATHER ROUNDUP FOR MINNESOTA
NATIONAL WEATHER SERVICE TWIN CITIES/CHANHASSEN MN
600 PM CST TUE NOV 25 2014


NOTE: "FAIR" INDICATES FEW OR NO CLOUDS BELOW 12,000 FEET WITH NO
SIGNIFICANT WEATHER AND/OR OBSTRUCTIONS TO VISIBILITY. N/A MEANS
CURRENT SKY AND/OR WEATHER CONDITIONS ARE NOT AVAILABLE.

MNZ060>063-068>070-260100-
   Twin Cities Metro

CITY           SKY/WX    TMP DP  RH WIND       PRES   REMARKS
TWIN CITIES    CLOUDY    23  14  68 SE7       30.03S WCI  15
6HR MIN TEMP:  18; 6HR MAX TEMP:  24;

ST PAUL        CLOUDY    23  16  74 SE6       30.05S WCI  16
CRYSTAL        CLOUDY    24  13  62 SE5       30.01F WCI  18
BLAINE         CLOUDY    25  16  68 CALM      30.01F
LAKEVILLE      CLOUDY    21  16  79 SE5       30.02S WCI  15
EDEN PRAIRIE   CLOUDY    24  13  62 E5        30.01S WCI  18
6HR MIN TEMP:  19; 6HR MAX TEMP:  24;

SOUTH ST PAUL  CLOUDY    24  16  69 CALM      30.04S
LAKE ELMO      CLOUDY    23  18  80 SE3       30.04S
$$
MNZ001>005-007-008-013>017-022>024-027-028-260100-
   Northwest Minnesota

CITY           SKY/WX    TMP DP  RH WIND       PRES   REMARKS
BEMIDJI        CLOUDY    18  11  75 E6        29.94R WCI   9
HALLOCK        PTCLDY    16   9  73 N12       30.01R WCI   3
ROSEAU         PTCLDY    16  10  79 N8        29.99R HAZE    WCI   5
WARROAD        LGT SNOW  16  10  79 N5        29.99R WCI   9
THIEF RVR FALL CLOUDY    19  16  86 NE6       29.96S WCI  11
CROOKSTON      CLOUDY    21  16  79 E7        29.97R WCI  13
FOSSTON        CLOUDY    18  12  79 NE6       29.94S WCI   9
DETROIT LAKES  MOCLDY    23  16  74 SE9       29.91S WCI  13
MOORHEAD       CLOUDY    25  19  80 SE8       29.92S WCI  16
PARK RAPIDS    CLOUDY    20  10  65 SE7       29.92S WCI  11
MAHNOMEN       CLOUDY    22  18  83 E3        29.92R
$$
MNZ006-009>011-018-025>026-260100-
   North Central Minnesota

CITY           SKY/WX    TMP DP  RH WIND       PRES   REMARKS
BAUDETTE       CLOUDY    17  12  80 NE3       29.97R
INTL FALLS     MOCLDY     9   5  84 CALM      29.98R
6HR MIN TEMP:   9; 6HR MAX TEMP:  18;

WASKISH        CLOUDY    18  14  86 CALM      29.97R
BIG FORK       CLOUDY    19   9  63 CALM      29.97R
LONGVILLE      MOCLDY    18   9  68 CALM      29.96R
GRAND RAPIDS   CLOUDY    18   3  53 SE3       29.96R
CRANE LAKE     CLOUDY    12   9  85 CALM      30.00R
ORR            CLOUDY    16   5  62 CALM      29.94R
COOK             N/A     18   7  62 CALM      29.96S
WALKER         CLOUDY    20  11  68 CALM      29.94R
$$
MNZ012-019>021-037-260100-
   Northeast Minnesota

CITY           SKY/WX    TMP DP  RH WIND       PRES   REMARKS
DULUTH         MOCLDY    17   6  62 SW5       29.97R WCI  10
6HR MIN TEMP:  16; 6HR MAX TEMP:  21;

ELY            PTCLDY     7   3  85 CALM      29.97R
HIBBING        CLOUDY    19   4  51 CALM      29.97R
EVELETH        CLOUDY    21   9  58 S3        29.98R
DULUTH HARBOR  PTCLDY    19  10  68 CALM      30.04R
TWO HARBORS    PTCLDY    19  10  68 CALM      29.98R
SILVER BAY     PTCLDY    18   7  62 CALM      29.98R
GRAND MARAIS     N/A     20   9  62 NW6       30.01S WCI  12
G MARAIS ARPRT PTCLDY    10   3  72 SW3       29.93S
$$
MNZ029>031-032-039>041-046>048-054>057-064-260100-
   West Central Minnesota

CITY           SKY/WX    TMP DP  RH WIND       PRES   REMARKS
FERGUS FALLS   CLOUDY    21  12  68 SE10      29.94F WCI  10
WHEATON        CLOUDY    21  18  86 E12       29.92F WCI   9
MORRIS         CLOUDY    23  18  80 SE9       29.91S WCI  13
ALEXANDRIA     CLOUDY    20  12  71 SE8       29.93S WCI  10
ELBOW LAKE       N/A     21  13  71 SE10      29.91F WCI  10
WADENA         MOCLDY    18   9  68 SE6       29.93S WCI   9
GLENWOOD       CLOUDY    21  16  79 E8        29.94R WCI  12
APPLETON       CLOUDY    27  18  69 SE12      29.92S WCI  16
BENSON         CLOUDY    25  16  68 S14G22    29.93S WCI  13
ORTONVILLE     CLOUDY    27  19  74 E10       29.89F WCI  17
MADISON        CLOUDY    32  25  74 SE8       29.90F WCI  25
WILLMAR        CLOUDY    25  16  68 SE13      29.96R WCI  13
$$
MNZ033>034-036-042>043-049>051-058-059-260100-
   Central Minnesota

CITY           SKY/WX    TMP DP  RH WIND       PRES   REMARKS
ST CLOUD       CLOUDY    21  11  65 SE6       29.99F WCI  13
6HR MIN TEMP:  16; 6HR MAX TEMP:  21;

SAUK CENTRE    CLOUDY    19  11  72 SE5       29.96R WCI  12
PAYNESVILLE    CLOUDY    20  11  70 E8        29.96S WCI  10
AITKIN         MOCLDY    19  10  68 CALM      29.96S
PINE RIVER     CLOUDY    18   9  68 CALM      29.99S
BRAINERD       MOCLDY    17   7  64 CALM      29.97S
STAPLES        MOCLDY   N/A N/A N/A SE3       29.95R
LONG PRAIRIE   FAIR      18  10  73 E3        29.95R
LITTLE FALLS   MOCLDY    18   9  68 SE5       29.98S WCI  11
LITCHFIELD     MOCLDY    23  16  74 SE8       29.97F WCI  14
BUFFALO        CLOUDY    22  11  62 E6        30.01S WCI  15
MAPLE LAKE     CLOUDY    23  15  70 SE5       30.00S WCI  17
$$
MNZ037-044-045-052-053-260100-
   East Central Minnesota

CITY           SKY/WX    TMP DP  RH WIND       PRES   REMARKS
PRINCETON      CLOUDY    19  12  73 CALM      30.00S
MORA           CLOUDY    19  10  68 S3        30.02S
CAMBRIDGE      CLOUDY    21  10  63 CALM      30.00S
RUSH CITY      CLOUDY    19  13  77 S3        30.03S
MOOSE LAKE     CLOUDY    18  10  73 CALM      29.99R
HINCKLEY       CLOUDY    19  14  79 CALM      30.01S
CLOQUET        CLOUDY    18  10  73 CALM      29.98S
MCGREGOR       MOCLDY    19  10  68 CALM      29.99R
$$
MNZ071>073-080-081-089-090-097-098-260100-
   Southwest Minnesota

CITY           SKY/WX    TMP DP  RH WIND       PRES   REMARKS
MONTEVIDEO     CLOUDY    25  19  80 SE9       29.93S WCI  15
GRANITE FALLS  CLOUDY    28  21  75 E8        29.94S WCI  20
CANBY          CLOUDY    31  24  74 SE7       29.90S WCI  24
MARSHALL       CLOUDY    30  19  64 SE8       29.90F WCI  23
REDWOOD FALLS  CLOUDY    28  16  60 SE12      29.95R WCI  18
OLIVIA         CLOUDY    28  18  64 SE7       29.95R WCI  21
PIPESTONE      CLOUDY    30  21  69 S9        29.86S WCI  22
WINDOM         MOCLDY    28  16  59 SE7       29.93S WCI  21
WORTHINGTON    CLOUDY    30  18  59 SE9       29.91S WCI  22
JACKSON        PTCLDY    30  14  51 SE9       29.94S WCI  22
TRACY          CLOUDY    32  22  66 SE9       29.91S WCI  24
SLAYTON        CLOUDY    29  21  70 SE9       29.89F WCI  21
$$
MNZ065>067-074>077-082>085-091>093-260100-
   South Central Minnesota

CITY           SKY/WX    TMP DP  RH WIND       PRES   REMARKS
MANKATO        CLOUDY    27  14  59 SE12      29.99S WCI  16
NEW ULM        MOCLDY    25  16  68 SE9       29.96F WCI  15
ST JAMES       MOCLDY    28  16  59 SE8       29.98S WCI  20
FAIRMONT       PTCLDY    28  12  50 SE13      29.96F WCI  18
GLENCOE        CLOUDY    26  17  71 E7        29.99S WCI  18
FARIBAULT      CLOUDY    25  16  68 SE8       30.02S WCI  16
OWATONNA       CLOUDY    23  16  74 SE8       30.01S WCI  14
WASECA         CLOUDY    25  14  63 SE8       30.02S WCI  16
ALBERT LEA     PTCLDY    25  16  68 SE7       30.00F WCI  17
$$
MNZ078>079-086>088-094>096-260100-
   Southeast Minnesota

CITY           SKY/WX    TMP DP  RH WIND       PRES   REMARKS
ROCHESTER      CLEAR     19  13  77 S3        30.04R
6HR MIN TEMP:  19; 6HR MAX TEMP:  24;

RED WING       CLOUDY    25  16  68 SE3       30.04S
STANTON        CLOUDY    25  16  68 S7        30.01F WCI  17
DODGE CENTER   PTCLDY    19  16  86 S8        30.02F WCI   9
WINONA         PTCLDY    23  16  74 CALM      30.09R
AUSTIN         CLOUDY    21  16  79 S3        30.04R
PRESTON        CLEAR     16  11  83 S9        30.04F WCI   4
$$
ABBREVIATIONS USED IN REMARKS
   TC - TEMPERATURES IN CELSIUS
  WCI - WIND CHILL INDEX
   HX - HEAT INDEX
  VSB - VISIBILITY
$$



USA.gov is the U.S. government's official web portal to all federal, state and local government web resources and services.